When you browse on this site, cookies collect data to enhance your experience and personalize the content and advertising you see.
Visit our Privacy Policy to learn more. By continuing to use the site, you agree to this use of cookies and data.
  • In Czech Republic
  • List of Countries
  • For 7 days
  • Water Temperature
  • Satellite Maps
  • Weather Map
  • Weather Widgets
  • user-avatar
    Login

    Hourly Weather Wausau

    Today, 22 February, Friday

    Time Temperature Precipitation Wind Pressure Humidity
    00:00 -14°C° 0 mm 2 mps 734 mmHg 95%
    01:00 -15°C° 0 mm 2 mps 734 mmHg 95%
    02:00 -15°C° 0 mm 2 mps 734 mmHg 96%
    03:00 -16°C° 0 mm 2 mps 734 mmHg 96%
    04:00 -14°C° 0 mm 1 mps 734 mmHg 96%
    05:00 -14°C° 0 mm 1 mps 734 mmHg 96%
    06:00 -14°C° 0 mm 1 mps 734 mmHg 96%
    07:00 -12°C° 0 mm 1 mps 735 mmHg 94%
    08:00 -11°C° 0 mm 0 mps 735 mmHg 92%
    09:00 -9°C° 0 mm 0 mps 736 mmHg 90%
    10:00 -7°C° 0 mm 1 mps 736 mmHg 89%
    11:00 -6°C° 0 mm 1 mps 736 mmHg 87%
    12:00 -5°C° 0 mm 2 mps 736 mmHg 85%
    13:00 -4°C° 0 mm 2 mps 735 mmHg 86%
    14:00 -2°C° 0 mm 1 mps 735 mmHg 87%
    15:00 -1°C° 0 mm 1 mps 735 mmHg 88%
    16:00 -2°C° 0 mm 1 mps 734 mmHg 89%
    17:00 -3°C° 0 mm 1 mps 734 mmHg 91%
    18:00 -3°C° 0 mm 1 mps 734 mmHg 93%
    19:00 -3°C° 0 mm 1 mps 734 mmHg 93%
    20:00 -5°C° 0 mm 2 mps 734 mmHg 94%
    21:00 -6°C° 0 mm 3 mps 734 mmHg 94%
    22:00 -7°C° 0 mm 3 mps 733 mmHg 94%
    23:00 -7°C° 0 mm 3 mps 733 mmHg 94%

    Tomorrow, 23 February, Saturday

    Time Temperature Precipitation Wind Pressure Humidity
    00:00 -7°C° 0 mm 3 mps 733 mmHg 93%
    01:00 -7°C° 0.1 mm 3 mps 732 mmHg 93%
    02:00 -7°C° 0.1 mm 3 mps 731 mmHg 93%
    03:00 -7°C° 0.1 mm 3 mps 731 mmHg 93%
    04:00 -8°C° 0.3 mm 4 mps 730 mmHg 94%
    05:00 -7°C° 0.3 mm 4 mps 729 mmHg 94%
    06:00 -7°C° 0.3 mm 5 mps 728 mmHg 94%
    07:00 -7°C° 0.3 mm 5 mps 728 mmHg 94%
    08:00 -6°C° 0.3 mm 5 mps 727 mmHg 94%
    09:00 -6°C° 0.3 mm 5 mps 727 mmHg 95%
    10:00 -5°C° 0.3 mm 5 mps 726 mmHg 95%
    11:00 -4°C° 0.3 mm 4 mps 725 mmHg 96%
    12:00 -3°C° 0.3 mm 4 mps 724 mmHg 96%
    13:00 -3°C° 0.1 mm 4 mps 723 mmHg 97%
    14:00 -2°C° 0.1 mm 4 mps 722 mmHg 97%
    15:00 -2°C° 0.1 mm 5 mps 721 mmHg 97%
    16:00 -2°C° 0.1 mm 5 mps 719 mmHg 96%
    17:00 -2°C° 0.1 mm 5 mps 718 mmHg 96%
    18:00 -3°C° 0.1 mm 6 mps 717 mmHg 95%
    19:00 -3°C° 2.3 mm 6 mps 714 mmHg 97%
    20:00 -3°C° 2.3 mm 7 mps 712 mmHg 98%
    21:00 -2°C° 2.3 mm 8 mps 710 mmHg 99%
    22:00 -3°C° 6.3 mm 7 mps 709 mmHg 98%
    23:00 -3°C° 6.3 mm 7 mps 707 mmHg 97%

    Day after tomorrow, 24 February, Sunday

    Time Temperature Precipitation Wind Pressure Humidity
    00:00 -3°C° 6.3 mm 6 mps 705 mmHg 95%
    01:00 -3°C° 1.5 mm 6 mps 705 mmHg 95%
    02:00 -4°C° 1.5 mm 7 mps 704 mmHg 94%
    03:00 -4°C° 1.5 mm 7 mps 704 mmHg 94%
    04:00 -5°C° 0.7 mm 8 mps 705 mmHg 91%
    05:00 -5°C° 0.7 mm 9 mps 705 mmHg 88%
    06:00 -5°C° 0.7 mm 10 mps 706 mmHg 86%
    07:00 -5°C° 0.1 mm 10 mps 707 mmHg 85%
    08:00 -5°C° 0.1 mm 10 mps 709 mmHg 85%
    09:00 -5°C° 0.1 mm 10 mps 710 mmHg 84%
    10:00 -7°C° 0.2 mm 10 mps 711 mmHg 85%
    11:00 -8°C° 0.2 mm 11 mps 712 mmHg 85%
    12:00 -8°C° 0.2 mm 11 mps 713 mmHg 85%
    13:00 -9°C° 0.2 mm 11 mps 714 mmHg 85%
    14:00 -9°C° 0.2 mm 11 mps 715 mmHg 84%
    15:00 -9°C° 0.2 mm 11 mps 717 mmHg 84%
    16:00 -10°C° 0.1 mm 10 mps 718 mmHg 83%
    17:00 -12°C° 0.1 mm 10 mps 720 mmHg 82%
    18:00 -12°C° 0.1 mm 9 mps 721 mmHg 81%
    19:00 -14°C° 0 mm 9 mps 722 mmHg 81%
    20:00 -15°C° 0 mm 8 mps 724 mmHg 82%
    21:00 -17°C° 0 mm 8 mps 725 mmHg 82%
    22:00 -18°C° 0 mm 7 mps 726 mmHg 83%
    23:00 -20°C° 0 mm 7 mps 728 mmHg 84%

    25 February, Monday

    Time Temperature Precipitation Wind Pressure Humidity
    00:00 -22°C° 0 mm 6 mps 729 mmHg 86%
    01:00 -23°C° 0 mm 6 mps 730 mmHg 87%
    02:00 -25°C° 0 mm 5 mps 730 mmHg 88%
    03:00 -27°C° 0 mm 5 mps 731 mmHg 90%
    04:00 -27°C° 0 mm 4 mps 732 mmHg 91%
    05:00 -29°C° 0 mm 4 mps 733 mmHg 92%
    06:00 -30°C° 0 mm 3 mps 733 mmHg 93%
    07:00 -29°C° 0 mm 3 mps 734 mmHg 93%
    08:00 -29°C° 0 mm 3 mps 735 mmHg 93%
    09:00 -27°C° 0 mm 3 mps 736 mmHg 93%
    10:00 -25°C° 0 mm 3 mps 736 mmHg 89%
    11:00 -23°C° 0 mm 3 mps 736 mmHg 85%
    12:00 -22°C° 0 mm 3 mps 736 mmHg 81%
    13:00 -21°C° 0 mm 3 mps 736 mmHg 82%
    14:00 -19°C° 0 mm 3 mps 735 mmHg 82%
    15:00 -18°C° 0 mm 3 mps 735 mmHg 83%
    16:00 -21°C° 0 mm 3 mps 735 mmHg 86%
    17:00 -20°C° 0 mm 2 mps 735 mmHg 89%
    18:00 -21°C° 0 mm 2 mps 735 mmHg 91%
    19:00 -23°C° 0 mm 2 mps 735 mmHg 92%
    20:00 -24°C° 0 mm 2 mps 736 mmHg 93%
    21:00 -25°C° 0 mm 2 mps 736 mmHg 93%
    22:00 -25°C° 0 mm 2 mps 736 mmHg 93%
    23:00 -22°C° 0 mm 1 mps 736 mmHg 93%

    26 February, Tuesday

    Time Temperature Precipitation Wind Pressure Humidity
    00:00 -22°C° 0 mm 1 mps 737 mmHg 93%
    01:00 -22°C° 0 mm 1 mps 737 mmHg 93%
    02:00 -24°C° 0 mm 2 mps 737 mmHg 92%
    03:00 -24°C° 0 mm 2 mps 737 mmHg 92%
    04:00 -24°C° 0 mm 2 mps 737 mmHg 91%
    05:00 -23°C° 0 mm 2 mps 737 mmHg 89%
    06:00 -21°C° 0 mm 2 mps 737 mmHg 88%
    07:00 -21°C° 0 mm 2 mps 736 mmHg 89%
    08:00 -22°C° 0 mm 3 mps 736 mmHg 89%
    09:00 -21°C° 0 mm 3 mps 736 mmHg 90%
    10:00 -22°C° 0.5 mm 4 mps 735 mmHg 92%
    11:00 -20°C° 0.5 mm 4 mps 734 mmHg 93%
    12:00 -19°C° 0.5 mm 4 mps 734 mmHg 95%
    13:00 -19°C° 0.7 mm 4 mps 733 mmHg 95%
    14:00 -19°C° 0.7 mm 5 mps 732 mmHg 95%
    15:00 -19°C° 0.7 mm 5 mps 731 mmHg 95%
    16:00 -18°C° 0.4 mm 5 mps 731 mmHg 95%
    17:00 -18°C° 0.4 mm 5 mps 730 mmHg 94%
    18:00 -18°C° 0.4 mm 5 mps 729 mmHg 94%
    19:00 -16°C° 0.2 mm 4 mps 729 mmHg 95%
    20:00 -14°C° 0.2 mm 3 mps 729 mmHg 96%
    21:00 -13°C° 0.2 mm 2 mps 728 mmHg 96%
    22:00 -12°C° 0.1 mm 2 mps 728 mmHg 97%
    23:00 -10°C° 0.1 mm 1 mps 727 mmHg 97%

    27 February, Wednesday

    Time Temperature Precipitation Wind Pressure Humidity
    00:00 -10°C° 0.1 mm 0 mps 727 mmHg 98%
    01:00 -10°C° 0 mm 1 mps 727 mmHg 96%
    02:00 -14°C° 0 mm 3 mps 727 mmHg 95%
    03:00 -15°C° 0 mm 4 mps 727 mmHg 93%
    04:00 -16°C° 0 mm 4 mps 727 mmHg 92%
    05:00 -18°C° 0 mm 4 mps 728 mmHg 92%
    06:00 -20°C° 0 mm 5 mps 729 mmHg 91%
    07:00 -20°C° 0 mm 5 mps 730 mmHg 91%
    08:00 -19°C° 0 mm 5 mps 730 mmHg 90%
    09:00 -20°C° 0 mm 6 mps 731 mmHg 90%
    10:00 -18°C° 0 mm 5 mps 732 mmHg 88%
    11:00 -17°C° 0 mm 5 mps 732 mmHg 86%
    12:00 -14°C° 0 mm 5 mps 732 mmHg 84%
    13:00 -14°C° 0 mm 5 mps 732 mmHg 84%
    14:00 -14°C° 0 mm 5 mps 732 mmHg 83%
    15:00 -13°C° 0 mm 5 mps 732 mmHg 83%
    16:00 -15°C° 0 mm 4 mps 732 mmHg 86%
    17:00 -15°C° 0 mm 3 mps 733 mmHg 89%
    18:00 -17°C° 0 mm 3 mps 733 mmHg 91%
    19:00 -18°C° 0 mm 3 mps 733 mmHg 92%
    20:00 -21°C° 0 mm 3 mps 733 mmHg 94%
    21:00 -22°C° 0 mm 3 mps 733 mmHg 95%
    22:00 -23°C° 0 mm 3 mps 733 mmHg 94%
    23:00 -24°C° 0 mm 3 mps 733 mmHg 94%
    Show more